This is the latest recevied weather packets stored in our database for station/object KG4GJX. If no packets are shown the sender has not sent any weather packets the latest 10 day(s).
| Time | Temp. | Humidity | Pressure | Rain* | Wind** | Luminosity | Snow |
|---|---|---|---|---|---|---|---|
| 1777530692 | 14.44° C | 100% | 1011.8 hPa | 0 mm | - | - | - |
| 1777530029 | 14.44° C | 100% | 1011.8 hPa | 0 mm | - | - | - |
| 1777529367 | 14.44° C | 100% | 1011.5 hPa | 0 mm | - | - | - |
| 1777528704 | 14.44° C | 100% | 1011.8 hPa | 0 mm | - | - | - |
| 1777528042 | 15° C | 97% | 1011.8 hPa | 0 mm | - | - | - |
| 1777527380 | 15.56° C | 95% | 1012.1 hPa | 0 mm | - | - | - |
| 1777526717 | 15.56° C | 94% | 1012.5 hPa | 0 mm | - | - | - |
| 1777526055 | 15.56° C | 94% | 1012.5 hPa | 0 mm | - | - | - |
| 1777525393 | 15.56° C | 94% | 1012.5 hPa | 0 mm | - | - | - |
| 1777524732 | 16.11° C | 92% | 1012.5 hPa | 0 mm | - | - | - |
| 1777524063 | 16.11° C | 92% | 1012.5 hPa | 0 mm | - | - | - |
| 1777523401 | 16.67° C | 92% | 1012.8 hPa | 0 mm | - | - | - |
| 1777522739 | 16.67° C | 91% | 1012.8 hPa | 0 mm | - | - | - |
| 1777522076 | 17.22° C | 89% | 1013.2 hPa | 0 mm | - | - | - |
| 1777521414 | 17.22° C | 88% | 1013.2 hPa | 0 mm | - | - | - |
| 1777520751 | 17.22° C | 87% | 1013.2 hPa | 0 mm | - | - | - |
| 1777520089 | 17.78° C | 87% | 1013.2 hPa | 0 mm | - | - | - |
| 1777519426 | 17.78° C | 87% | 1013.2 hPa | 0 mm | - | - | - |
| 1777518759 | 17.78° C | 88% | 1013.5 hPa | 0 mm | - | - | - |
| 1777518096 | 18.33° C | 88% | 1013.5 hPa | 0 mm | - | - | - |
| 1777517434 | 18.33° C | 87% | 1013.5 hPa | 0 mm | - | - | - |
| 1777516771 | 18.33° C | 85% | 1013.2 hPa | 0 mm | - | - | - |
| 1777516109 | 18.33° C | 89% | 1013.2 hPa | 0 mm | - | - | - |
| 1777515447 | 18.89° C | 88% | 1012.8 hPa | 0 mm | - | - | - |
| 1777514784 | 19.44° C | 88% | 1012.1 hPa | 0 mm | - | - | - |
* Rain latest hour (hover to see other rain measurements)
** Current wind speed in m/s (hover to see current wind gust speed)